Wind_Speed
54 53 47 43 42 38 39 38 42 38 38 40 38 37 37 38 40 40 41 42 42 42 41 39 35 35 32 29 28 26 27 28 27 28 28 28 26 27 28 28 28 29 30 29
59 47 42 43 38 37 38 40 41 39 38 37 38 37 37 41 42 43 42 42 41 42 43 40 37 35 34 31 32 32 27 26 27 27 26 24 25 26 27 28 28 29 30 28
41 37 39 39 39 40 40 43 43 42 38 39 37 38 40 43 46 46 45 42 40 40 41 39 38 36 35 31 30 33 29 26 25 25 24 21 22 24 27 26 25 25 25 27
35 34 36 45 38 39 44 49 46 42 39 37 39 40 43 47 48 48 47 44 42 43 42 41 39 37 35 33 31 29 27 27 26 23 21 20 20 22 22 19 22 23 25 30
48 46 47 41 40 43 45 50 46 41 39 40 41 43 46 51 50 51 50 48 47 49 48 43 38 37 34 33 31 27 27 24 23 21 19 20 19 20 17 19 19 21 27 29
52 47 47 46 41 43 50 49 42 40 39 40 43 46 48 51 51 51 53 54 54 55 50 45 38 34 33 33 33 28 27 25 20 22 20 17 18 16 17 18 18 17 21 19
50 51 51 54 44 42 44 42 39 38 40 42 46 50 50 52 52 53 54 56 54 48 42 39 37 33 30 32 33 29 28 24 19 22 21 17 17 17 16 16 17 20 16 14
51 52 55 54 47 39 42 33 37 40 42 44 48 50 52 52 53 55 58 50 39 35 36 37 33 30 29 31 31 28 28 24 17 19 19 18 18 16 15 14 15 14 13 12
52 52 51 45 42 41 38 34 37 41 45 47 50 52 54 53 54 55 48 38 33 30 30 33 30 26 26 29 30 27 26 22 16 13 19 18 17 16 11 10 10 8 6 8
50 48 43 42 42 39 37 35 38 43 46 50 53 55 52 53 53 45 37 33 30 28 25 25 24 20 23 28 30 28 26 22 13 17 19 20 16 14 10 8 8 5 4 8
48 45 43 44 41 39 36 37 39 45 49 52 53 51 53 53 44 35 33 29 26 25 25 24 23 18 20 26 29 27 28 24 14 21 22 23 18 14 12 9 7 7 10 12
43 45 46 44 40 37 35 38 43 47 49 50 50 51 53 43 36 34 31 30 30 30 26 23 22 19 19 24 28 28 29 26 20 21 26 27 23 18 15 12 10 9 8 11
49 47 43 41 37 36 36 40 45 48 50 49 50 53 47 36 35 35 34 33 33 31 24 22 20 19 18 23 27 29 27 26 22 22 27 27 26 22 20 17 14 10 7 5
43 42 39 36 35 35 38 42 45 46 48 50 52 50 38 34 35 35 35 34 31 30 27 22 21 18 17 20 25 28 27 27 21 22 24 28 27 26 23 19 15 14 12 9
41 37 35 34 34 36 40 43 44 46 48 51 50 41 35 33 32 33 34 34 34 32 28 22 21 17 16 20 25 28 27 28 21 20 25 27 28 26 25 21 18 16 16 14
35 34 33 33 35 39 43 44 44 46 48 48 40 35 32 32 31 31 33 33 36 27 19 18 18 16 17 19 25 28 28 28 22 18 22 24 29 29 27 23 20 19 18 16
31 31 32 34 38 42 43 43 45 46 46 41 33 30 30 30 29 27 30 30 23 10 8 11 13 14 16 17 24 29 29 28 22 18 17 25 26 32 30 26 23 22 20 20
31 31 33 37 39 41 42 44 46 44 37 33 29 29 29 28 23 23 24 21 14 8 5 5 6 11 16 16 22 29 31 27 22 19 17 22 26 28 31 28 25 24 21 19
31 33 36 38 39 41 43 44 42 37 32 28 28 27 26 23 21 23 21 17 10 8 8 7 6 9 14 15 20 28 33 28 23 20 18 20 25 26 27 28 26 23 21 19
33 36 36 38 40 42 44 43 39 32 27 25 23 23 23 22 23 23 20 15 11 12 12 12 11 10 12 13 17 27 34 31 23 20 19 19 22 27 28 28 26 24 24 25
35 37 39 40 42 44 44 39 32 27 24 22 21 23 25 22 21 18 18 16 13 13 15 16 14 13 13 13 16 26 35 34 26 21 20 19 21 24 27 28 27 27 27 25
37 39 42 44 45 45 39 31 25 23 21 20 22 25 23 20 16 17 18 18 14 12 13 14 14 15 15 14 15 24 33 35 30 24 22 20 21 21 22 23 25 26 26 25
42 44 45 45 44 39 31 25 20 20 19 19 19 21 21 20 18 17 14 15 15 14 11 13 13 14 14 14 14 21 31 37 31 27 23 21 21 20 21 21 22 23 23 23
45 45 44 42 38 31 25 20 18 17 18 17 17 19 19 17 16 14 15 15 13 12 13 13 12 15 15 14 13 20 30 38 34 29 25 22 21 21 20 20 21 22 22 22
44 43 40 36 29 24 22 18 17 17 17 16 15 16 15 16 16 16 15 12 8 10 8 11 14 13 15 14 13 18 29 36 35 31 27 23 22 21 19 20 21 22 21 21
40 36 32 27 22 21 19 17 16 15 16 15 14 14 14 14 15 16 12 7 6 4 5 5 7 9 10 12 13 17 26 33 34 31 27 24 23 21 19 19 21 21 21 22
30 26 23 20 19 18 16 16 14 14 14 14 13 12 13 13 13 12 7 4 3 3 3 3 2 3 7 9 12 17 28 27 27 27 25 25 23 23 23 22 21 20 20 20
Wind_Direction
306 305 298 298 299 293 300 303 301 305 306 304 306 305 303 302 302 301 302 301 301 302 300 299 294 288 281 273 278 277 274 269 276 261 258 258 256 249 246 248 255 253 248 250
305 299 295 297 295 297 301 304 306 305 306 306 304 305 303 303 303 304 303 303 302 301 299 297 294 285 281 275 272 273 277 274 274 259 259 258 255 252 252 254 253 253 253 262
302 299 297 304 295 301 302 304 306 305 305 305 304 304 303 305 306 306 306 306 304 301 299 297 290 285 279 274 274 269 270 276 276 259 261 254 258 258 254 250 252 257 262 267
304 306 302 305 302 302 304 305 305 302 304 304 303 304 307 307 308 307 307 306 305 303 299 295 291 283 276 272 269 270 264 269 275 268 256 253 259 256 248 251 260 262 269 276
317 308 303 305 303 304 304 301 304 303 303 301 302 305 309 308 308 308 307 306 305 303 301 293 283 280 273 268 265 265 261 263 271 262 253 245 260 247 244 250 258 272 274 270
313 302 298 302 294 304 306 305 301 300 300 301 304 306 307 307 308 308 308 307 307 304 297 289 279 270 267 263 261 261 263 257 267 253 248 254 240 233 245 249 263 269 279 268
301 301 301 304 294 302 305 307 303 299 300 304 307 308 309 309 309 309 308 309 305 303 301 293 276 264 259 254 256 257 257 253 267 254 240 241 226 235 255 253 259 270 276 262
300 301 306 304 295 303 302 302 299 299 302 306 308 310 311 312 312 312 312 306 305 308 304 298 279 259 254 249 249 249 247 248 267 243 228 218 230 238 258 257 270 273 279 244
302 300 304 302 306 305 299 298 299 302 305 308 311 312 313 314 314 314 308 307 307 307 310 305 286 260 247 243 242 242 238 238 253 221 211 215 227 234 255 258 262 274 257 207
300 302 299 301 306 301 297 298 301 303 306 309 312 315 315 315 316 310 307 307 308 302 304 312 304 268 241 236 233 233 232 229 238 205 205 212 214 227 244 243 245 217 166 153
301 303 297 303 303 298 299 300 303 307 309 312 315 315 316 317 313 306 304 306 310 308 301 297 296 285 244 234 228 229 228 225 233 211 203 211 212 216 224 224 209 190 180 171
300 300 304 304 301 297 298 303 308 310 312 314 316 317 318 314 306 304 300 300 300 302 308 300 285 284 254 235 224 225 225 229 231 215 206 218 213 207 218 218 217 202 187 202
298 300 301 299 296 296 302 308 310 311 314 314 316 318 318 309 303 302 300 297 300 300 296 288 293 281 265 236 224 220 222 221 218 214 205 216 209 209 210 221 222 219 202 223
299 300 297 293 296 301 307 310 311 313 313 316 318 319 315 307 305 306 305 304 301 296 292 277 275 282 275 235 222 215 219 210 211 211 204 210 210 208 206 215 218 215 222 238
298 297 293 295 299 306 309 311 313 314 317 319 320 318 314 310 310 309 307 304 305 299 286 269 259 268 270 231 218 211 213 202 208 207 206 210 212 210 206 208 216 215 213 210
296 295 295 298 306 309 310 312 315 318 319 320 316 315 314 313 311 311 312 317 316 303 270 245 244 250 257 230 214 209 207 200 204 203 208 210 210 212 211 216 223 219 221 221
295 293 297 307 309 311 313 316 316 318 321 318 315 314 314 313 310 318 322 327 329 310 240 217 234 245 248 237 214 206 202 200 202 203 211 209 213 212 216 217 217 221 227 228
292 298 306 308 311 312 314 315 319 321 317 313 311 312 312 310 309 324 326 327 333 311 239 236 255 246 240 241 215 205 196 197 204 203 213 212 212 215 216 215 217 223 224 221
299 304 308 310 311 312 314 318 320 317 312 310 311 310 310 305 304 317 322 318 314 292 275 269 280 256 241 244 219 204 193 194 202 205 213 213 213 215 214 215 215 214 213 217
302 305 307 308 311 314 316 318 316 310 308 309 309 307 310 308 307 308 311 307 294 269 253 251 266 271 247 249 226 206 195 193 198 206 211 212 210 212 212 212 209 209 214 222
302 304 307 310 313 314 316 316 308 305 305 306 305 306 311 309 312 315 320 308 289 274 259 248 246 254 247 244 228 207 199 193 198 207 206 205 207 209 211 213 213 216 220 223
304 306 308 310 312 313 314 308 297 302 304 309 312 312 311 314 299 305 316 316 296 275 267 262 251 247 243 241 231 210 202 190 196 204 203 203 207 211 212 213 216 223 226 230
304 306 308 309 310 311 307 295 288 302 306 308 315 328 329 323 312 299 297 309 310 281 265 255 251 250 251 251 235 211 204 190 194 199 197 202 206 207 211 212 214 218 222 223
303 304 305 306 307 304 296 283 284 297 302 309 321 324 326 324 319 311 301 302 301 298 260 251 256 250 246 246 243 216 203 192 194 196 195 200 209 211 211 212 218 218 223 229
302 302 302 302 298 290 284 276 283 295 305 305 312 323 323 326 327 319 299 288 295 318 285 248 246 256 244 239 235 216 202 189 193 196 196 198 208 217 216 211 219 230 237 242
300 299 296 292 283 282 274 271 282 294 303 307 312 317 321 332 336 345 342 317 289 295 303 272 248 250 242 232 219 207 194 182 192 194 197 198 205 215 219 221 228 235 243 250
294 290 284 277 278 275 265 268 284 294 303 308 312 315 326 335 335 347 343 351 312 316 328 314 218 229 209 205 197 192 178 168 183 189 197 208 213 217 223 228 235 241 247 251
Height
5693 5687 5679 5672 5668 5661 5656 5653 5647 5647 5639 5634 5630 5626 5622 5616 5610 5605 5599 5595 5589 5585 5581 5577 5573 5571 5569 5568 5567 5566 5566 5567 5567 5567 5568 5569 5570 5572 5574 5576 5578 5580 5581 5584
5681 5674 5667 5664 5659 5652 5648 5645 5640 5634 5631 5626 5620 5617 5612 5606 5601 5595 5589 5584 5580 5575 5570 5567 5564 5561 5560 5559 5558 5559 5559 5559 5559 5559 5560 5561 5562 5564 5567 5568 5569 5570 5573 5574
5671 5665 5660 5658 5652 5645 5641 5636 5632 5626 5621 5617 5613 5607 5602 5596 5591 5585 5579 5574 5569 5564 5560 5557 5554 5551 5550 5550 5550 5550 5551 5551 5551 5552 5552 5554 5555 5556 5558 5559 5561 5563 5565 5566
5661 5657 5654 5651 5644 5638 5633 5628 5622 5617 5612 5608 5603 5598 5591 5584 5580 5574 5568 5563 5558 5553 5550 5546 5543 5541 5541 5540 5541 5541 5543 5544 5543 5544 5545 5547 5548 5549 5550 5553 5555 5556 5556 5556
5651 5647 5642 5641 5634 5629 5622 5620 5614 5607 5603 5598 5593 5589 5582 5572 5567 5561 5555 5550 5546 5540 5536 5533 5531 5530 5530 5531 5531 5533 5535 5536 5537 5537 5539 5540 5541 5543 5545 5547 5548 5549 5548 5548
5642 5635 5630 5629 5622 5616 5612 5609 5604 5598 5593 5588 5583 5579 5573 5564 5555 5549 5541 5534 5530 5525 5519 5516 5516 5518 5519 5520 5522 5524 5527 5529 5530 5531 5532 5534 5535 5538 5540 5541 5542 5542 5541 5540
5629 5623 5621 5616 5610 5605 5602 5600 5593 5588 5583 5579 5573 5567 5562 5553 5545 5537 5530 5522 5514 5508 5504 5501 5501 5504 5507 5510 5512 5515 5519 5521 5523 5524 5526 5528 5531 5533 5535 5536 5536 5536 5534 5534
5617 5610 5609 5605 5600 5595 5592 5584 5582 5578 5573 5569 5563 5557 5548 5541 5532 5524 5516 5508 5502 5499 5494 5490 5487 5491 5495 5499 5502 5507 5511 5514 5516 5517 5520 5523 5526 5529 5530 5530 5530 5529 5528 5528
5610 5602 5597 5593 5589 5585 5580 5575 5571 5568 5563 5557 5552 5545 5536 5529 5520 5512 5503 5498 5494 5491 5486 5480 5477 5479 5484 5488 5493 5498 5503 5507 5510 5511 5514 5519 5522 5525 5526 5526 5526 5526 5525 5526
5598 5594 5587 5583 5578 5575 5570 5565 5561 5558 5553 5546 5541 5532 5525 5516 5508 5501 5495 5490 5487 5483 5479 5475 5471 5471 5475 5479 5484 5490 5495 5501 5504 5507 5511 5515 5518 5521 5522 5523 5524 5524 5524 5525
5588 5582 5578 5573 5568 5565 5560 5555 5552 5547 5541 5535 5528 5521 5513 5505 5497 5492 5487 5483 5479 5476 5473 5469 5466 5465 5467 5471 5476 5482 5488 5494 5498 5502 5506 5510 5514 5517 5519 5521 5522 5523 5525 5527
5578 5573 5567 5562 5559 5555 5551 5547 5542 5537 5531 5523 5516 5510 5502 5494 5488 5483 5479 5475 5472 5469 5467 5463 5461 5460 5460 5464 5469 5475 5482 5487 5492 5496 5501 5505 5509 5513 5516 5519 5520 5523 5525 5528
5568 5562 5557 5553 5549 5546 5543 5538 5532 5526 5519 5514 5507 5499 5491 5485 5479 5475 5471 5467 5463 5460 5458 5457 5456 5455 5455 5458 5462 5469 5475 5481 5487 5491 5495 5500 5505 5509 5513 5516 5519 5522 5524 5527
5557 5552 5548 5544 5540 5537 5534 5529 5522 5516 5510 5502 5496 5489 5482 5476 5471 5466 5462 5458 5454 5451 5450 5450 5450 5450 5450 5452 5457 5463 5469 5475 5481 5485 5489 5495 5500 5504 5509 5513 5516 5519 5522 5525
5546 5542 5539 5536 5532 5529 5525 5520 5513 5507 5499 5492 5483 5477 5473 5468 5464 5459 5454 5449 5445 5441 5440 5440 5442 5444 5445 5446 5451 5457 5463 5469 5475 5480 5484 5489 5495 5500 5504 5509 5512 5515 5518 5521
5537 5534 5531 5528 5524 5520 5515 5510 5504 5497 5489 5482 5475 5469 5465 5460 5457 5452 5446 5440 5434 5429 5428 5431 5435 5438 5439 5441 5446 5452 5458 5465 5471 5475 5479 5484 5489 5495 5500 5504 5508 5511 5514 5517
5529 5527 5523 5519 5515 5510 5505 5500 5494 5488 5480 5473 5468 5464 5459 5455 5451 5447 5440 5434 5428 5424 5424 5426 5430 5432 5435 5437 5441 5447 5453 5460 5466 5470 5474 5479 5484 5489 5494 5499 5503 5506 5509 5512
5521 5518 5514 5511 5506 5501 5496 5490 5484 5478 5472 5467 5462 5459 5454 5450 5447 5442 5437 5432 5428 5427 5426 5427 5428 5429 5431 5434 5437 5442 5449 5456 5461 5466 5470 5474 5479 5484 5488 5493 5497 5501 5504 5507
5514 5510 5506 5502 5497 5492 5487 5481 5475 5470 5465 5461 5457 5453 5449 5445 5442 5438 5435 5431 5428 5427 5427 5427 5427 5427 5429 5431 5433 5439 5445 5452 5457 5462 5466 5470 5474 5479 5483 5488 5492 5496 5500 5503
5505 5502 5498 5493 5489 5484 5478 5473 5467 5463 5459 5455 5451 5448 5444 5440 5436 5433 5430 5428 5426 5425 5425 5425 5425 5426 5426 5428 5430 5435 5441 5448 5453 5458 5462 5466 5470 5474 5479 5483 5487 5491 5494 5497
5497 5493 5489 5485 5480 5475 5470 5464 5460 5456 5453 5450 5446 5443 5439 5435 5431 5428 5426 5424 5422 5421 5421 5421 5422 5423 5424 5424 5426 5430 5436 5444 5450 5455 5459 5462 5466 5470 5474 5478 5482 5485 5488 5492
5488 5484 5480 5476 5471 5466 5461 5457 5454 5451 5448 5445 5441 5437 5433 5430 5427 5425 5422 5420 5418 5418 5417 5417 5418 5419 5420 5421 5423 5426 5431 5440 5446 5452 5455 5459 5463 5466 5470 5474 5477 5480 5483 5486
5478 5474 5470 5465 5461 5457 5453 5450 5448 5446 5443 5440 5437 5433 5428 5424 5422 5420 5419 5417 5415 5413 5413 5414 5414 5415 5417 5418 5420 5422 5427 5436 5442 5448 5452 5456 5460 5463 5466 5469 5472 5474 5477 5480
5467 5463 5459 5455 5451 5448 5446 5444 5443 5441 5439 5437 5433 5429 5425 5422 5419 5416 5414 5412 5410 5409 5409 5410 5411 5412 5413 5415 5416 5419 5423 5431 5438 5444 5449 5453 5457 5460 5463 5465 5468 5471 5473 5476
5456 5452 5448 5445 5443 5441 5439 5439 5439 5437 5435 5433 5430 5427 5423 5420 5417 5413 5410 5409 5407 5406 5405 5406 5407 5408 5409 5411 5412 5415 5419 5426 5433 5440 5445 5450 5454 5457 5460 5463 5465 5467 5470 5473
5444 5441 5438 5436 5435 5434 5434 5434 5434 5432 5431 5429 5426 5424 5421 5418 5415 5411 5407 5405 5404 5404 5404 5403 5403 5404 5405 5407 5409 5412 5416 5423 5430 5436 5441 5446 5450 5454 5457 5460 5463 5465 5468 5470
5434 5432 5430 5429 5429 5428 5429 5429 5429 5428 5426 5425 5423 5421 5419 5416 5413 5410 5408 5406 5405 5404 5403 5402 5402 5402 5403 5404 5406 5409 5415 5421 5427 5432 5438 5442 5446 5449 5453 5456 5458 5461 5462 5464